Location: Unspecified
(0.0000°N, 0.0000°E)
Time: 01:25:18
(UTC+00:00)

Altair - All Passes

Search period start: 25 May 2016 00:00
Search period end: 04 June 2016 00:00
Orbit: 1502 x 1682 km, 47.2° (Epoch: 24 May)

Date Brightness Start Highest point End Pass type
(mag) Time Alt. Az. Time Alt. Az. Time Alt. Az.
25 May - 08:24:08 10° SSE 08:27:58 13° SE 08:31:51 10° ESE daylight
25 May - 10:23:18 10° SSW 10:33:07 71° SE 10:43:11 10° NE daylight
25 May - 12:30:14 10° W 12:37:58 25° NW 12:45:50 10° N daylight
25 May - 21:10:50 10° N 21:18:45 29° NE 21:26:27 10° ESE visible
25 May - 23:14:10 10° NW 23:23:19 57° SW 23:32:18 10° SSE visible
26 May - 08:00:48 10° SSE 08:02:41 11° SE 08:04:34 10° SE daylight
26 May - 09:58:15 10° SSW 10:07:56 64° SE 10:17:54 10° NE daylight
26 May - 12:04:35 10° WSW 12:12:44 29° NW 12:21:02 10° N daylight
26 May - 20:46:01 10° N 20:53:33 26° NE 21:00:53 10° E visible
26 May - 22:48:53 10° NW 22:58:12 64° SW 23:07:18 10° SSE visible
27 May - 09:33:14 10° SSW 09:42:46 57° SE 09:52:35 10° NE daylight
27 May - 11:39:01 10° WSW 11:47:30 32° NW 11:56:10 10° N daylight
27 May - 20:21:15 10° N 20:28:21 23° NE 20:35:16 10° E visible
27 May - 22:23:39 10° NW 22:33:05 72° SW 22:42:15 10° SSE visible
28 May - 00:35:00 10° WSW 00:38:02 12° SW 00:41:04 10° SSW night (unlit)
28 May - 09:08:15 10° SSW 09:17:36 51° SE 09:27:13 10° ENE daylight
28 May - 11:13:31 10° WSW 11:22:17 36° NW 11:31:17 10° NNE daylight
28 May - 19:56:33 10° N 20:03:08 20° NE 20:09:32 10° E visible
28 May - 21:58:25 10° NW 22:07:57 80° SW 22:17:12 10° SE visible
29 May - 00:08:25 10° WSW 00:12:47 14° SW 00:17:09 10° SSW night (unlit)
29 May - 08:43:18 10° SSW 08:52:26 45° SE 09:01:49 10° ENE daylight
29 May - 10:48:04 10° WSW 10:57:05 40° NW 11:06:20 10° NNE daylight
29 May - 19:31:57 10° N 19:37:53 18° NE 19:43:41 10° E visible
29 May - 21:33:14 10° NW 21:42:49 89° SW 21:52:06 10° SE visible
29 May - 23:42:14 10° W 23:47:33 16° SW 23:52:51 10° S night (unlit)
30 May - 08:18:22 10° SSW 08:27:15 40° SE 08:36:22 10° ENE daylight
30 May - 10:22:40 10° WSW 10:31:53 45° NW 10:41:21 10° NNE daylight
30 May - 19:07:28 10° NNE 19:12:38 15° NE 19:17:41 10° ENE visible
30 May - 21:08:04 10° NW 21:17:42 83° NE 21:26:59 10° SE visible
30 May - 23:16:16 10° W 23:22:20 19° SW 23:28:23 10° S visible
31 May - 07:53:29 10° SSW 08:02:05 36° SE 08:10:52 10° ENE daylight
31 May - 09:57:20 10° WSW 10:06:41 50° NW 10:16:21 10° NNE daylight
31 May - 18:43:12 10° NNE 18:47:21 13° NE 18:51:26 10° ENE visible
31 May - 20:42:56 10° NW 20:52:33 74° NE 21:01:49 10° SE visible
31 May - 22:50:25 10° W 22:57:09 22° SW 23:03:49 10° S visible
01 Jun - 07:28:39 10° S 07:36:53 32° SE 07:45:19 10° ENE daylight
01 Jun - 09:32:02 10° SW 09:41:30 56° NW 09:51:18 10° NNE daylight
01 Jun - 18:19:22 10° NNE 18:22:03 11° NE 18:24:44 10° ENE visible
01 Jun - 20:17:50 10° NNW 20:27:25 67° NE 20:36:38 10° SE visible
01 Jun - 22:24:41 10° W 22:31:58 25° SW 22:39:08 10° S visible
02 Jun - 07:03:52 10° S 07:11:42 28° SE 07:19:42 10° ENE daylight
02 Jun - 09:06:46 10° SW 09:16:20 63° NW 09:26:14 10° NNE daylight
02 Jun - 11:19:39 10° NW 11:21:51 11° NW 11:24:05 10° NNW daylight
02 Jun - 19:52:45 10° NNW 20:02:15 60° NE 20:11:24 10° SE visible
02 Jun - 21:59:02 10° WNW 22:06:47 28° SW 22:14:24 10° S visible
03 Jun - 06:39:08 10° S 06:46:30 25° SE 06:54:00 10° E daylight
03 Jun - 08:41:32 10° SW 08:51:10 70° NW 09:01:08 10° NNE daylight
03 Jun - 10:52:36 10° WNW 10:56:32 13° NW 11:00:30 10° NNW daylight
03 Jun - 19:27:42 10° NNW 19:37:06 53° NE 19:46:10 10° SE visible
03 Jun - 21:33:27 10° WNW 21:41:37 32° SW 21:49:36 10° S visible
